MOLNIYA 1-93

Last updated on April 16, 2016, 9:38 a.m. UTC

1 28163U 04005A   16107.17649683  .99999999  80343-5  50846-3 0  9999
2 28163  62.8606 306.2093 0183577 253.9848 222.5544 16.31216773 90564

Satellite is not in orbit.